LiveATC.Net - Listen to live air traffic control over the Internet! Contact LiveATC.net for advertising information


ICAO: KSPB  IATA: SPB   Airport: Scappoose Industrial Airpark
City: Scappoose   State/Province: Oregon
Country: United States   Continent: North America
KSPB METAR Weather: KSPB 011100Z AUTO 01004KT 10SM -RA FEW100 BKN120 17/16 A3000 RMK AO2 P0000 T01720156 $
KSPB Flight Activity (FlightAware)
KSPB Airport Info   (AirNav) (iFlightPlanner)
KSPB CTAF
Feed Status: DOWN
Last heard on: 2014-08-01 10:06:04 (0 days 1 hours 46 minutes ago)
KSPB CTAF Audio Archives
FacilityFrequency
Scappoose CTAF122.800


NOTICE

Unauthorized use prohibited. See LiveATC.net Terms of Service


Find LiveATC Audio Streams


Airport/ARTCC Code

Frequency
(e.g., 124.400, 128.75)
Site-wide search

Browse LiveATC Feeds
LiveATC Coverage Map
Top 50 LiveATC Feeds
Bad Weather Areas

LiveATC FAQ
Offer a LiveATC Feed
Contact LiveATC.net
Press Inquiries

LiveATC on iPhone
LiveATC on Android

LiveATC Mobile
(Mobile browser)

ATC Audio Archives
Interesting Recordings

LiveATC Forums


Home Page
About LiveATC.net
Make a Donation
LiveATC Bookstore

Terms of Use
Privacy Policy

ATC/Radar Sites
U.S. ARTCC Freqs
Canadian Air Freqs

AIRMETs/SIGMETs

FAA Airport Status
Nat'l Airspace Status
Arrival Demand Charts


Server Software By:
Icecast.org
Liquidsoap

Please make a donation to help us keep growing!